DW8463 Weather Reports


time (UTC)temp
F
wind
direction
speed
knots
gust
knots
rain 1hr
in
rain 24hr
in
rain mn
in
humidity
%
barometer
mb
20260504185803 65 279 10.4 19.1 0.00 0.00 0.00 33 998.2
20260504185304 65 265 8.7 20.9 0.00 0.00 0.00 33 998.1
20260504184803 64 283 7.8 20.0 0.00 0.00 0.00 33 998.0
20260504184303 64 275 7.8 17.4 0.00 0.00 0.00 33 998.0
20260504183803 64 312 11.3 20.0 0.00 0.00 0.00 33 998.1
20260504182803 64 359 9.6 18.2 0.00 0.00 0.00 33 998.0
20260504182304 64 351 8.7 15.6 0.00 0.00 0.00 33 998.0
20260504181802 64 0 8.7 24.3 0.00 0.00 0.00 33 997.9
20260504181303 65 311 8.7 20.9 0.00 0.00 0.00 33 997.9
20260504180803 65 274 7.0 21.7 0.00 0.00 0.00 33 997.7
20260504180302 64 296 6.1 17.4 0.00 0.00 0.00 33 997.6
20260504175803 64 319 6.1 12.2 0.00 0.00 0.00 36 997.7
20260504175304 64 275 6.1 14.8 0.00 0.00 0.00 36 997.6
20260504174802 64 310 8.7 17.4 0.00 0.00 0.00 36 997.6
20260504174303 63 290 5.2 11.3 0.00 0.00 0.00 36 997.5
20260504173803 63 317 7.8 14.8 0.00 0.00 0.00 36 997.5
20260504173303 63 314 7.8 17.4 0.00 0.00 0.00 36 997.5
20260504172802 63 0 5.2 12.2 0.00 0.00 0.00 36 997.5
20260504171803 63 352 8.7 14.8 0.00 0.00 0.00 36 997.5
20260504171303 63 322 7.8 20.0 0.00 0.00 0.00 36 997.5
20260504170803 63 302 6.1 13.9 0.00 0.00 0.00 36 997.6
20260504170303 63 304 7.8 13.9 0.00 0.00 0.00 36 997.7
20260504160303 63 302 11.3 22.6 0.00 0.00 0.00 45 997.4
20260504150802 64 0 7.0 13.9 0.00 0.00 0.00 46 996.9
20260504150302 64 0 7.0 13.9 0.00 0.00 0.00 46 996.9
20260504141303 63 0 6.1 17.4 0.00 0.00 0.00 42 996.6
20260504140802 63 326 7.8 20.0 0.00 0.00 0.00 42 996.6
20260504140302 63 315 7.8 13.0 0.00 0.00 0.00 42 996.6
20260504130802 61 0 4.3 11.3 0.00 0.00 0.00 49 996.5
20260504130302 60 0 4.3 12.2 0.00 0.00 0.00 49 996.6
20260504120302 56 0 5.2 13.0 0.00 0.00 0.00 52 995.9
20260504110303 52 0 2.6 7.0 0.00 0.00 0.00 56 996.2
20260504100302 51 0 4.3 7.8 0.00 0.00 0.00 55 996.9
20260504081802 48 0 0.9 4.3 0.00 0.00 0.00 49 998.5
20260504081303 48 0 0.0 2.6 0.00 0.00 0.00 49 998.5
20260504080803 48 0 1.7 7.0 0.00 0.00 0.00 49 998.6
20260504080303 48 0 0.0 2.6 0.00 0.00 0.00 49 998.7
20260504070303 42 0 0.0 0.9 0.00 0.00 0.00 45 999.8
20260504050303 43 0 0.0 0.0 0.00 0.00 0.00 53 1001.8
20260504045803 44 0 0.0 0.0 0.00 0.00 0.00 47 1001.9
20260504044803 44 0 0.0 0.0 0.00 0.00 0.00 47 1002.0
20260504044303 45 0 0.0 0.0 0.00 0.00 0.00 47 1002.1
20260504043803 45 0 0.0 0.0 0.00 0.00 0.00 47 1002.1
20260504042803 45 0 0.0 0.0 0.00 0.00 0.00 47 1002.3
20260504042304 45 0 0.0 0.0 0.00 0.00 0.00 47 1002.3
20260504041803 45 0 0.0 0.0 0.00 0.00 0.00 47 1002.3
20260504041303 45 0 0.0 0.0 0.00 0.00 0.00 47 1002.4
20260504040803 46 0 0.0 0.0 0.00 0.00 0.00 47 1002.5
20260504035803 46 0 0.0 0.0 0.00 0.00 0.00 41 1002.6
20260504035304 46 0 0.0 0.0 0.00 0.00 0.00 41 1002.7
20260504034803 47 0 0.0 0.0 0.00 0.00 0.00 41 1002.8
20260504034303 47 0 0.0 0.0 0.00 0.00 0.00 41 1002.8
20260504033803 47 0 0.0 0.0 0.00 0.00 0.00 41 1002.9
20260504033302 47 0 0.0 0.0 0.00 0.00 0.00 41 1002.9
20260504032803 48 0 0.0 0.0 0.00 0.00 0.00 41 1003.0
20260504032304 48 0 0.0 0.0 0.00 0.00 0.00 41 1003.1
20260504031802 48 0 0.0 0.0 0.00 0.00 0.00 41 1003.2
20260504031303 49 0 0.0 0.0 0.00 0.00 0.00 41 1003.3
20260504030803 49 0 0.0 0.0 0.00 0.00 0.00 41 1003.3
20260504030303 49 0 0.0 0.0 0.00 0.00 0.00 41 1003.4
20260504025803 49 0 0.0 0.0 0.00 0.00 0.00 40 1003.4
20260504025304 50 0 0.0 0.0 0.00 0.00 0.00 40 1003.4
20260504024803 51 0 0.0 0.0 0.00 0.00 0.00 40 1003.3
20260504024303 51 0 0.0 0.0 0.00 0.00 0.00 40 1003.3
20260504023802 51 0 0.0 0.0 0.00 0.00 0.00 40 1003.3
20260504023303 52 0 0.0 0.0 0.00 0.00 0.00 40 1003.3
20260504022803 52 0 0.0 0.0 0.00 0.00 0.00 40 1003.3
20260504022304 53 0 0.0 0.0 0.00 0.00 0.00 40 1003.4
20260504021803 53 0 0.0 0.0 0.00 0.00 0.00 40 1003.3
20260504020803 54 0 0.0 0.0 0.00 0.00 0.00 40 1003.3
20260504020303 55 0 0.0 0.0 0.00 0.00 0.00 38 1003.3
20260504015803 55 0 0.0 0.0 0.00 0.00 0.00 30 1003.3
20260504015304 56 0 0.0 0.0 0.00 0.00 0.00 30 1003.3
20260504014803 57 0 0.0 0.0 0.00 0.00 0.00 30 1003.3
20260504014302 57 0 0.0 0.0 0.00 0.00 0.00 30 1003.3
20260504013802 58 0 0.0 0.0 0.00 0.00 0.00 30 1003.2
20260504012803 60 0 0.0 0.9 0.00 0.00 0.00 30 1003.2
20260504012304 60 0 0.0 0.0 0.00 0.00 0.00 30 1003.2
20260504011803 61 0 0.0 0.0 0.00 0.00 0.00 30 1003.2
20260504011302 62 0 0.0 1.7 0.00 0.00 0.00 30 1003.2
20260504010803 62 0 0.9 1.7 0.00 0.00 0.00 30 1003.2
20260504005803 64 0 0.9 2.6 0.00 0.00 0.00 26 1003.3
20260504005304 64 286 2.6 4.3 0.00 0.00 0.00 26 1003.3
20260504004803 65 295 1.7 7.0 0.00 0.00 0.00 26 1003.2
20260504004303 65 288 1.7 6.1 0.00 0.00 0.00 26 1003.2
20260504003803 66 298 2.6 5.2 0.00 0.00 0.00 26 1003.3
20260504003303 66 280 1.7 7.8 0.00 0.00 0.00 26 1003.3
20260504002802 66 298 4.3 8.7 0.00 0.00 0.00 26 1003.2
20260504001803 67 302 3.5 10.4 0.00 0.00 0.00 26 1003.3
20260504001303 67 315 3.5 8.7 0.00 0.00 0.00 26 1003.4
20260503235803 68 274 3.5 10.4 0.00 0.00 0.00 26 1003.4
20260503235304 68 265 2.6 11.3 0.00 0.00 0.00 26 1003.4
20260503234803 68 330 4.3 10.4 0.00 0.00 0.00 26 1003.4
20260503234303 68 289 3.5 10.4 0.00 0.00 0.00 26 1003.4
20260503233803 68 281 4.3 12.2 0.00 0.00 0.00 26 1003.5
20260503233303 68 282 7.0 13.0 0.00 0.00 0.00 26 1003.4
20260503232803 68 290 4.3 7.8 0.00 0.00 0.00 26 1003.4
20260503232305 68 318 5.2 12.2 0.00 0.00 0.00 26 1003.5
20260503231803 69 323 5.2 12.2 0.00 0.00 0.00 26 1003.5
20260503231303 69 323 7.8 13.0 0.00 0.00 0.00 26 1003.5
20260503230803 69 307 5.2 11.3 0.00 0.00 0.00 26 1003.6
20260503230303 69 270 1.7 7.8 0.00 0.00 0.00 26 1003.6
20260503225803 69 326 4.3 7.0 0.00 0.00 0.00 28 1003.6
20260503225304 70 308 4.3 7.0 0.00 0.00 0.00 28 1003.7
20260503224803 70 330 6.1 10.4 0.00 0.00 0.00 28 1003.7
20260503224303 70 262 5.2 11.3 0.00 0.00 0.00 28 1003.6
20260503223803 70 299 4.3 10.4 0.00 0.00 0.00 28 1003.7
20260503223303 70 285 8.7 13.0 0.00 0.00 0.00 28 1003.7
20260503222803 70 316 4.3 10.4 0.00 0.00 0.00 28 1003.6
20260503222304 70 308 7.0 12.2 0.00 0.00 0.00 28 1003.6
20260503221803 70 307 4.3 13.9 0.00 0.00 0.00 28 1003.6
20260503221303 70 288 5.2 10.4 0.00 0.00 0.00 28 1003.5
20260503220803 71 271 5.2 13.0 0.00 0.00 0.00 28 1003.6
20260503220303 71 288 4.3 10.4 0.00 0.00 0.00 28 1003.6
20260503215803 71 287 6.1 12.2 0.00 0.00 0.00 29 1003.6
20260503215304 71 293 5.2 11.3 0.00 0.00 0.00 29 1003.5
20260503214802 70 317 7.8 12.2 0.00 0.00 0.00 29 1003.5
20260503214302 71 314 6.1 12.2 0.00 0.00 0.00 29 1003.5
20260503213802 71 317 5.2 8.7 0.00 0.00 0.00 29 1003.5
20260503213303 71 279 4.3 10.4 0.00 0.00 0.00 29 1003.5
20260503212803 70 330 5.2 12.2 0.00 0.00 0.00 29 1003.6
20260503212304 70 326 8.7 14.8 0.00 0.00 0.00 29 1003.6
20260503211803 71 341 7.0 13.0 0.00 0.00 0.00 29 1003.6
20260503211303 70 321 7.0 15.6 0.00 0.00 0.00 29 1003.7
20260503210303 71 318 5.2 14.8 0.00 0.00 0.00 29 1003.8
20260503205803 70 262 4.3 12.2 0.00 0.00 0.00 33 1003.8
20260503205304 70 342 7.8 12.2 0.00 0.00 0.00 33 1003.9
20260503204803 70 306 6.1 10.4 0.00 0.00 0.00 33 1003.9
20260503204303 71 307 5.2 12.2 0.00 0.00 0.00 33 1004.0
20260503203803 71 268 5.2 15.6 0.00 0.00 0.00 33 1004.1
20260503203303 71 335 7.8 13.0 0.00 0.00 0.00 33 1004.1
20260503202803 70 293 8.7 13.0 0.00 0.00 0.00 33 1004.2
20260503202304 70 341 7.8 13.9 0.00 0.00 0.00 33 1004.3
20260503200803 70 341 6.1 17.4 0.00 0.00 0.00 33 1004.3
20260503200303 70 315 4.3 10.4 0.00 0.00 0.00 33 1004.2
20260503195802 71 335 8.7 13.0 0.00 0.00 0.00 31 1004.3
20260503195304 71 310 8.7 14.8 0.00 0.00 0.00 31 1004.2
20260503194803 71 302 5.2 14.8 0.00 0.00 0.00 31 1004.2
20260503194303 70 346 7.8 13.9 0.00 0.00 0.00 31 1004.2
20260503193803 70 333 6.1 12.2 0.00 0.00 0.00 31 1004.3
20260503193303 70 257 5.2 10.4 0.00 0.00 0.00 31 1004.3
20260503192803 70 310 7.0 13.9 0.00 0.00 0.00 31 1004.5
20260503192305 70 310 6.1 14.8 0.00 0.00 0.00 31 1004.4
20260503191303 70 308 9.6 15.6 0.00 0.00 0.00 31 1004.5
20260503190803 70 341 10.4 15.6 0.00 0.00 0.00 31 1004.4
20260503190303 70 328 10.4 18.2 0.00 0.00 0.00 31 1004.5